Torna al catalogo

COSMOS 1275 DEB

LostPO
NORAD 42219·DEBRIS·🇷🇺 Russia

Lanciato Jun 4, 1981 da Plesetsk Cosmodrome

Loading…

Prossimi Passaggi (prossime 24 ore)

TLE

ObsoletoSource: Space-Track

Epoca: Oct 31, 2022, 03:10 UTC

1 42219U 81053UK  22304.13205266  .00001907  00000-0  11238-2 0  9995
2 42219  82.9607 247.9044 0048638 292.6763  66.9272 14.06891431444355

Traccia COSMOS 1275 DEB in tempo reale con AllMySat

Download on the App Store